Location: Treviso
(45.6669°N, 12.2430°E)
Time: 11:00:44
(UTC+01:00)

ISS - Pass Details

Date: 22 March 2023
Orbit: 414 x 423 km, 51.6° (Epoch: 20 March)

Event Time Altitude Azimuth Distance (km) Brightness Sun altitude
Rises 20:15:39 0° 282° (WNW) 2,357 1.6 -19.5°
Reaches altitude 10° 20:17:56 10° 295° (WNW) 1,493 0.3 -19.9°
Maximum altitude 20:20:54 28° 357° (N) 812 -2.1 -20.3°
Enters shadow 20:21:36 26° 20° (NNE) 864 -2.2 -20.5°
